Location: ????????
(38.4362°N, 22.8767°E)
Time: 05:39:13
(UTC+00:00)

IRS-1D - Visible Passes

Search period start: 13 July 2024 00:00
Search period end: 23 July 2024 00:00
Orbit: 737 x 814 km, 98.8° (Epoch: 12 July)

Date Brightness Start Highest point End Pass type
(mag) Time Alt. Az. Time Alt. Az. Time Alt. Az.
13 Jul 6.0 01:04:38 10° ENE 01:07:17 14° E 01:09:55 10° SE visible
13 Jul 3.6 02:41:57 10° N 02:46:47 56° WNW 02:51:36 10° SSW visible
14 Jul 3.8 02:08:13 10° NNE 02:13:08 66° ESE 02:18:02 10° S visible
15 Jul 5.1 01:35:01 10° NE 01:39:20 30° E 01:43:37 10° SSE visible
16 Jul 6.0 01:02:54 10° ENE 01:05:21 14° E 01:07:47 10° ESE visible
16 Jul 3.6 02:40:02 10° N 02:44:53 59° WNW 02:49:43 10° SSW visible
17 Jul 3.8 02:06:19 10° NNE 02:11:13 63° ESE 02:16:06 10° S visible
18 Jul 5.2 01:33:08 10° NE 01:37:23 28° E 01:41:37 10° SSE visible
19 Jul 6.0 01:01:11 10° ENE 01:03:24 13° E 01:05:37 10° ESE visible
19 Jul 3.5 02:38:05 10° N 02:42:57 63° WNW 02:47:50 10° SSW visible
20 Jul 3.9 02:04:24 10° NNE 02:09:17 60° ESE 02:14:10 10° S visible
21 Jul 5.2 01:31:16 10° NE 01:35:26 27° E 01:39:37 10° SSE visible
22 Jul 6.1 00:59:29 10° ENE 01:01:27 12° E 01:03:23 10° ESE visible
22 Jul 3.5 02:36:08 10° N 02:41:02 66° WNW 02:45:57 10° SSW visible
